Tiempo cada hora Dabwali

Hoy, 4 Agosto, Miércoles

Tiempo Temperatura Precipitaciones Viento Presión Humedad
00:00 +35°C° 0 mm 3 mps 732 mmHg 58%
01:00 +35°C° 0 mm 3 mps 732 mmHg 59%
02:00 +34°C° 0 mm 3 mps 732 mmHg 60%
03:00 +34°C° 0 mm 3 mps 732 mmHg 61%
04:00 +34°C° 0 mm 3 mps 732 mmHg 62%
05:00 +34°C° 0 mm 3 mps 732 mmHg 63%
06:00 +34°C° 0 mm 3 mps 733 mmHg 61%
07:00 +34°C° 0 mm 4 mps 733 mmHg 59%
08:00 +35°C° 0 mm 4 mps 733 mmHg 58%
09:00 +36°C° 0 mm 4 mps 733 mmHg 53%
10:00 +38°C° 0 mm 3 mps 733 mmHg 49%
11:00 +39°C° 0 mm 3 mps 734 mmHg 44%
12:00 +40°C° 0 mm 3 mps 733 mmHg 42%
13:00 +41°C° 0 mm 2 mps 732 mmHg 39%
14:00 +41°C° 0 mm 2 mps 732 mmHg 37%
15:00 +41°C° 0 mm 2 mps 731 mmHg 38%
16:00 +41°C° 0 mm 2 mps 731 mmHg 39%
17:00 +40°C° 0 mm 1 mps 731 mmHg 40%
18:00 +39°C° 0 mm 2 mps 731 mmHg 42%
19:00 +39°C° 0 mm 2 mps 731 mmHg 44%
20:00 +38°C° 0 mm 2 mps 732 mmHg 47%
21:00 +37°C° 0.1 mm 2 mps 732 mmHg 49%
22:00 +37°C° 0.1 mm 2 mps 732 mmHg 51%
23:00 +36°C° 0.1 mm 3 mps 732 mmHg 53%

Mañana, 5 Agosto, Jueves

Tiempo Temperatura Precipitaciones Viento Presión Humedad
00:00 +36°C° 0 mm 3 mps 732 mmHg 55%
01:00 +35°C° 0 mm 3 mps 732 mmHg 56%
02:00 +35°C° 0 mm 3 mps 731 mmHg 58%
03:00 +35°C° 0 mm 3 mps 731 mmHg 59%
04:00 +34°C° 0 mm 3 mps 731 mmHg 61%
05:00 +34°C° 0 mm 3 mps 732 mmHg 63%
06:00 +35°C° 0 mm 3 mps 732 mmHg 61%
07:00 +35°C° 0 mm 3 mps 732 mmHg 58%
08:00 +36°C° 0 mm 4 mps 732 mmHg 56%
09:00 +37°C° 0 mm 3 mps 732 mmHg 52%
10:00 +39°C° 0 mm 3 mps 732 mmHg 47%
11:00 +40°C° 0 mm 2 mps 732 mmHg 42%
12:00 +40°C° 0.2 mm 3 mps 732 mmHg 44%
13:00 +40°C° 0.2 mm 4 mps 732 mmHg 46%
14:00 +40°C° 0.2 mm 4 mps 731 mmHg 48%
15:00 +40°C° 0 mm 4 mps 731 mmHg 45%
16:00 +40°C° 0 mm 3 mps 731 mmHg 43%
17:00 +41°C° 0 mm 2 mps 731 mmHg 41%
18:00 +39°C° 0 mm 3 mps 731 mmHg 45%
19:00 +38°C° 0 mm 3 mps 731 mmHg 49%
20:00 +37°C° 0 mm 3 mps 731 mmHg 53%
21:00 +36°C° 0.2 mm 3 mps 732 mmHg 57%
22:00 +35°C° 0.2 mm 3 mps 732 mmHg 61%
23:00 +34°C° 0.2 mm 3 mps 732 mmHg 65%

Pasado mañana, 6 Agosto, Viernes

Tiempo Temperatura Precipitaciones Viento Presión Humedad
00:00 +32°C° 0.4 mm 2 mps 732 mmHg 66%
01:00 +32°C° 0.4 mm 1 mps 732 mmHg 67%
02:00 +32°C° 0.4 mm 1 mps 731 mmHg 68%
03:00 +31°C° 1 mm 1 mps 731 mmHg 70%
04:00 +31°C° 1 mm 1 mps 731 mmHg 73%
05:00 +30°C° 1 mm 2 mps 732 mmHg 76%
06:00 +32°C° 0 mm 2 mps 732 mmHg 69%
07:00 +34°C° 0 mm 2 mps 732 mmHg 63%
08:00 +35°C° 0 mm 3 mps 733 mmHg 57%
09:00 +37°C° 0 mm 3 mps 733 mmHg 51%
10:00 +39°C° 0 mm 3 mps 733 mmHg 45%
11:00 +40°C° 0 mm 3 mps 733 mmHg 39%
12:00 +42°C° 0 mm 3 mps 732 mmHg 36%
13:00 +42°C° 0 mm 2 mps 732 mmHg 34%
14:00 +43°C° 0 mm 2 mps 731 mmHg 31%
15:00 +42°C° 0.6 mm 4 mps 731 mmHg 40%
16:00 +39°C° 0.6 mm 5 mps 730 mmHg 48%
17:00 +36°C° 0.6 mm 7 mps 730 mmHg 57%
18:00 +34°C° 3.4 mm 6 mps 731 mmHg 60%
19:00 +32°C° 3.4 mm 6 mps 731 mmHg 62%
20:00 +29°C° 3.4 mm 6 mps 732 mmHg 65%
21:00 +30°C° 0.6 mm 4 mps 732 mmHg 64%
22:00 +31°C° 0.6 mm 3 mps 732 mmHg 63%
23:00 +31°C° 0.6 mm 1 mps 732 mmHg 62%

7 Agosto, Sábado

Tiempo Temperatura Precipitaciones Viento Presión Humedad
00:00 +31°C° 0.4 mm 2 mps 732 mmHg 63%
01:00 +31°C° 0.4 mm 2 mps 732 mmHg 65%
02:00 +30°C° 0.4 mm 2 mps 732 mmHg 66%
03:00 +30°C° 0.3 mm 2 mps 732 mmHg 67%
04:00 +30°C° 0.3 mm 2 mps 732 mmHg 68%
05:00 +30°C° 0.3 mm 3 mps 732 mmHg 69%
06:00 +31°C° 0 mm 3 mps 732 mmHg 65%
07:00 +34°C° 0 mm 4 mps 733 mmHg 61%
08:00 +35°C° 0 mm 4 mps 733 mmHg 57%
09:00 +37°C° 0 mm 4 mps 733 mmHg 50%
10:00 +39°C° 0 mm 3 mps 733 mmHg 43%
11:00 +42°C° 0 mm 3 mps 733 mmHg 36%
12:00 +43°C° 0 mm 3 mps 733 mmHg 34%
13:00 +44°C° 0 mm 3 mps 732 mmHg 32%
14:00 +43°C° 0 mm 2 mps 732 mmHg 30%
15:00 +44°C° 0 mm 3 mps 732 mmHg 31%
16:00 +44°C° 0 mm 3 mps 731 mmHg 32%
17:00 +43°C° 0 mm 3 mps 731 mmHg 33%
18:00 +39°C° 1.2 mm 3 mps 732 mmHg 43%
19:00 +35°C° 1.2 mm 4 mps 732 mmHg 52%
20:00 +32°C° 1.2 mm 5 mps 732 mmHg 61%
21:00 +32°C° 0.5 mm 5 mps 732 mmHg 60%
22:00 +33°C° 0.5 mm 5 mps 732 mmHg 58%
23:00 +33°C° 0.5 mm 5 mps 732 mmHg 57%

8 Agosto, Domingo

Tiempo Temperatura Precipitaciones Viento Presión Humedad
00:00 +33°C° 0 mm 4 mps 732 mmHg 56%
01:00 +33°C° 0 mm 3 mps 732 mmHg 55%
02:00 +32°C° 0 mm 1 mps 732 mmHg 53%
03:00 +31°C° 0.4 mm 2 mps 732 mmHg 57%
04:00 +31°C° 0.4 mm 2 mps 733 mmHg 61%
05:00 +30°C° 0.4 mm 2 mps 733 mmHg 65%
06:00 +31°C° 0 mm 3 mps 733 mmHg 61%
07:00 +34°C° 0 mm 3 mps 733 mmHg 57%
08:00 +35°C° 0 mm 3 mps 734 mmHg 54%
09:00 +37°C° 0 mm 3 mps 734 mmHg 49%
10:00 +38°C° 0 mm 3 mps 734 mmHg 44%
11:00 +40°C° 0 mm 3 mps 734 mmHg 40%
12:00 +41°C° 0 mm 2 mps 734 mmHg 36%
13:00 +42°C° 0 mm 2 mps 733 mmHg 33%
14:00 +45°C° 0 mm 2 mps 732 mmHg 29%
15:00 +45°C° 0 mm 2 mps 732 mmHg 29%
16:00 +45°C° 0 mm 2 mps 732 mmHg 29%
17:00 +45°C° 0 mm 2 mps 731 mmHg 29%
18:00 +42°C° 0 mm 2 mps 732 mmHg 33%
19:00 +41°C° 0 mm 2 mps 732 mmHg 37%
20:00 +39°C° 0 mm 2 mps 732 mmHg 41%
21:00 +38°C° 0 mm 3 mps 732 mmHg 44%
22:00 +37°C° 0 mm 3 mps 732 mmHg 48%
23:00 +37°C° 0 mm 3 mps 733 mmHg 51%

9 Agosto, Lunes

Tiempo Temperatura Precipitaciones Viento Presión Humedad
00:00 +36°C° 0 mm 3 mps 732 mmHg 52%
01:00 +36°C° 0 mm 3 mps 732 mmHg 53%
02:00 +36°C° 0 mm 3 mps 732 mmHg 54%
03:00 +35°C° 0 mm 2 mps 732 mmHg 55%
04:00 +35°C° 0 mm 2 mps 732 mmHg 56%
05:00 +35°C° 0 mm 2 mps 732 mmHg 57%
06:00 +36°C° 0 mm 2 mps 732 mmHg 52%
07:00 +37°C° 0 mm 2 mps 733 mmHg 47%
08:00 +39°C° 0 mm 3 mps 733 mmHg 43%
09:00 +40°C° 0 mm 3 mps 733 mmHg 38%
10:00 +43°C° 0 mm 3 mps 733 mmHg 34%
11:00 +44°C° 0 mm 3 mps 733 mmHg 30%
12:00 +45°C° 0 mm 3 mps 733 mmHg 28%
13:00 +45°C° 0 mm 3 mps 732 mmHg 27%
14:00 +46°C° 0 mm 2 mps 732 mmHg 25%
15:00 +46°C° 0 mm 2 mps 731 mmHg 26%
16:00 +46°C° 0 mm 3 mps 731 mmHg 26%
17:00 +45°C° 0 mm 3 mps 731 mmHg 27%
18:00 +42°C° 0.5 mm 4 mps 731 mmHg 36%
19:00 +39°C° 0.5 mm 5 mps 732 mmHg 44%
20:00 +35°C° 0.5 mm 7 mps 732 mmHg 53%
21:00 +34°C° 0.1 mm 6 mps 732 mmHg 52%
22:00 +34°C° 0.1 mm 4 mps 732 mmHg 52%
23:00 +34°C° 0.1 mm 3 mps 732 mmHg 51%
Mostrar más

Necesitamos Su Consentimiento

Meteoprog y nuestros Proveedores de Servicios pueden almacenar y acceder a sus datos personales como cookies, identificadores de dispositivo u otras tecnologías similares de su dispositivo y procesar dichos datos para personalizar contenido y anuncios, además de ofrecer funciones de redes sociales y analizar el tráfico.

  • Almacenar y/o acceder a información en su dispositivo

    Se puede almacenar o acceder a cookies, identificadores de dispositivo u otra información de su dispositivo para los fines anteriormente indicados.

  • Anuncios y contenido personalizados, medición de anuncios y contenido, percepciones del público, y desarrollo de productos

    Los anuncios y el contenido pueden personalizarse en base a su perfil. Se pueden añadir más datos para personalizar mejor los anuncios y contenidos. Se puede medir el rendimiento de los anuncios y contenidos. Se puede obtener la percepción sobre el público que ha visto los anuncios y contenidos. Dichos datos pueden usarse para desarrollar o mejorar la experiencia del usuario, sistemas y software.

Al hacer clic en ‘Estoy De Acuerdo’ usted permitirá el uso de las cookies, identificadores de dispositivo, balizas web u otras tecnologías similares indicadas. Su configuración puede cambiarse desde el navegador de su dispositivo.

Para ciertos fines, los intereses legítimos pueden ser considerados por encima del consentimiento. Puede leer más sobre ello en nuestra Política de Privacidad y Cookies.